Regional Weather Roundup
Issued by NWS Kansas City/Pleasant Hill, MO

Home | Current Version | Previous Version | Text Only | Print | Product List | Glossary On
Versions: 1 2 3 4 5 6 7 8 9 10 11 12 13 14 15 16 17 18 19 20 21 22 23 24 25 26 27 28 29 30 31 32 33 34 35 36 37 38 39 40 41 42 43 44 45 46 47 48 49 50
000
ASUS43 KEAX 272104
RWREAX

WEATHER ROUNDUP FOR EASTERN KANSAS AND NORTHWEST MISSOURI
NATIONAL WEATHER SERVICE KANSAS CITY/PLEASANT HILL MO
400 PM CDT MON APR 27 2015

KSZ040-057-103>105-MOZ028-029-037-043-272200-
...KANSAS CITY METROPOLITAN AREA...

CITY           SKY/WX    TMP DP  RH WIND       PRES   REMARKS
K.C. INTL      PTSUNNY   64  36  35 E10       30.08F
K.C. DOWNTOWN  MOSUNNY   66  33  29 NE14G23   30.07F
LEES SUMMIT    MOSUNNY   65  32  29 NE15G26   30.07F
OLATHE - IXD   SUNNY     66  35  31 NE16G24   30.06F
OLATHE - OJC   MOSUNNY   66  35  31 NE16G24   30.05F
LAWRENCE       MOSUNNY   66  34  30 NE16G26   30.07F

$$

MOZ001>008-011>017-020>025-030>033-038>040-044>046-053-054-272200-
...NORTHERN AND CENTRAL MISSOURI...

CITY           SKY/WX    TMP DP  RH WIND       PRES   REMARKS
ST. JOSEPH     MOSUNNY   68  35  29 NE12      30.09F
MOSBY          MOCLDY    64  32  29 NE14G21   30.09F
WARRENSBURG    MOSUNNY   66  32  28 NE15G25   30.06F
WHITEMAN AFB   PTSUNNY   67  37  33 NE20      30.05F
CLINTON        MOSUNNY   64  37  36 NE15      30.05F
SEDALIA        SUNNY     68  36  30 NE12      30.07F
WARSAW         NOT AVBL
MARSHALL       MOSUNNY   68  37  32 NE10G18   30.08F
CHILLICOTHE      N/A     68  34  28 NE7G20    30.09F
MOBERLY        MOSUNNY   68  34  28 NE18      30.08F
KIRKSVILLE     SUNNY     66  39  37 N13G24    30.09F

$$

MOZ041-047>049-056>058-063>065-088>090-097-272200-
...EASTERN AND SOUTHERN MISSOURI...

CITY           SKY/WX    TMP DP  RH WIND       PRES   REMARKS
ST. LOUIS INTL MOSUNNY   67  35  30 NE18      30.05F
SPIRIT OF STL  PTSUNNY   66  35  31 N14G23    30.04F
COLUMBIA       MOSUNNY   67  37  33 N15       30.06F
JEFFERSON CITY SUNNY     67  32  27 N14G21    30.05F
MEXICO         MOSUNNY   68  41  37 N15       30.07F
HANNIBAL       SUNNY     68  27  21 NE10G16   30.08F
LEBANON        MOSUNNY   64  32  29 NE15      30.02F
OSAGE BEACH    SUNNY     66  36  32 NE14G24   30.04S
SPRINGFIELD    PTSUNNY   64  33  31 NE22      29.98F
BRANSON        CLOUDY    63  32  31 E14G22    29.97F
NEVADA         PTSUNNY   63  37  39 NE16G24   30.03S
JOPLIN         CLOUDY    63  36  36 E17G28    29.97F
WEST PLAINS    PTSUNNY   65  32  29 E17       29.99F

$$

IAZ060-094-KSZ022-034>040-054-083-096-NEZ052-066-093-272200-
...KANSAS...SOUTHEAST NEBRASKA AND IOWA...

CITY           SKY/WX    TMP DP  RH WIND       PRES   REMARKS
TOPEKA         MOSUNNY   66  37  34 N16G25    30.07F
MANHATTAN      MOSUNNY   65  37  35 NE20G26   30.08F
EMPORIA        PTSUNNY   64  35  34 NE18G31   30.05S
CHANUTE        PTSUNNY   65  39  38 NE18G28   30.00F
WICHITA        PTSUNNY   62  35  36 NE25G31   30.01F
OMAHA          MOSUNNY   70  31  23 NE16G26   30.13F
LINCOLN        SUNNY     68  33  27 NE14      30.15F
FALLS CITY     SUNNY     68  34  28 E15       30.10F
LAMONI         SUNNY     67  35  30 N13       30.10F
DES MOINES     MOSUNNY   68  30  24 E9G21     30.12F

$$



USA.gov is the U.S. government's official web portal to all federal, state and local government web resources and services.